owner,sensor,date,latitude,longitude,air_temperature,qcFlag 
TCOON,ioos:station:TCOON:146:1,2016-08-01T00:30:00Z,28.1324,-97.0345,30.2,1111122 
TCOON,ioos:station:TCOON:146:1,2016-08-01T01:30:00Z,28.1324,-97.0345,29.9,1111122 
TCOON,ioos:station:TCOON:146:1,2016-08-01T02:30:00Z,28.1324,-97.0345,29.7,1111122 
TCOON,ioos:station:TCOON:146:1,2016-08-01T03:30:00Z,28.1324,-97.0345,29.7,1111122 
TCOON,ioos:station:TCOON:146:1,2016-08-01T04:30:00Z,28.1324,-97.0345,29.6,1111122 
TCOON,ioos:station:TCOON:146:1,2016-08-01T05:30:00Z,28.1324,-97.0345,29.5,1111122 
TCOON,ioos:station:TCOON:146:1,2016-08-01T06:30:00Z,28.1324,-97.0345,29.4,1111122 
TCOON,ioos:station:TCOON:146:1,2016-08-01T07:30:00Z,28.1324,-97.0345,29.3,1111122 
TCOON,ioos:station:TCOON:146:1,2016-08-01T08:30:00Z,28.1324,-97.0345,29.2,1111122 
TCOON,ioos:station:TCOON:146:1,2016-08-01T09:30:00Z,28.1324,-97.0345,28.9,1111122 
TCOON,ioos:station:TCOON:146:1,2016-08-01T10:30:00Z,28.1324,-97.0345,28.7,1111122 
TCOON,ioos:station:TCOON:146:1,2016-08-01T11:30:00Z,28.1324,-97.0345,28.3,1111122 
TCOON,ioos:station:TCOON:146:1,2016-08-01T12:30:00Z,28.1324,-97.0345,28.1,1111122 
TCOON,ioos:station:TCOON:146:1,2016-08-01T13:30:00Z,28.1324,-97.0345,28.9,1111122 
TCOON,ioos:station:TCOON:146:1,2016-08-01T14:30:00Z,28.1324,-97.0345,29.2,1111122 
TCOON,ioos:station:TCOON:146:1,2016-08-01T15:30:00Z,28.1324,-97.0345,29.5,1111122 
TCOON,ioos:station:TCOON:146:1,2016-08-01T16:30:00Z,28.1324,-97.0345,29.6,1111122 
TCOON,ioos:station:TCOON:146:1,2016-08-01T17:30:00Z,28.1324,-97.0345,29.7,1111122 
TCOON,ioos:station:TCOON:146:1,2016-08-01T18:30:00Z,28.1324,-97.0345,29.9,1111122 
TCOON,ioos:station:TCOON:146:1,2016-08-01T19:30:00Z,28.1324,-97.0345,30.0,1111122 
TCOON,ioos:station:TCOON:146:1,2016-08-01T20:30:00Z,28.1324,-97.0345,30.1,1111122 
TCOON,ioos:station:TCOON:146:1,2016-08-01T21:30:00Z,28.1324,-97.0345,30.0,1111122 
TCOON,ioos:station:TCOON:146:1,2016-08-01T22:30:00Z,28.1324,-97.0345,30.1,1111122 
TCOON,ioos:station:TCOON:146:1,2016-08-01T23:30:00Z,28.1324,-97.0345,30.0,1111122 
TCOON,ioos:station:TCOON:146:1,2016-08-02T00:30:00Z,28.1324,-97.0345,30.0,1111122 
TCOON,ioos:station:TCOON:146:1,2016-08-02T01:30:00Z,28.1324,-97.0345,29.8,1111122 
TCOON,ioos:station:TCOON:146:1,2016-08-02T02:30:00Z,28.1324,-97.0345,29.8,1111122 
TCOON,ioos:station:TCOON:146:1,2016-08-02T03:30:00Z,28.1324,-97.0345,29.8,1111122 
TCOON,ioos:station:TCOON:146:1,2016-08-02T04:30:00Z,28.1324,-97.0345,29.8,1111122 
TCOON,ioos:station:TCOON:146:1,2016-08-02T05:30:00Z,28.1324,-97.0345,29.7,1111122 
TCOON,ioos:station:TCOON:146:1,2016-08-02T06:30:00Z,28.1324,-97.0345,29.7,1111122 
TCOON,ioos:station:TCOON:146:1,2016-08-02T07:30:00Z,28.1324,-97.0345,29.6,1111122 
TCOON,ioos:station:TCOON:146:1,2016-08-02T08:30:00Z,28.1324,-97.0345,29.5,1111122 
TCOON,ioos:station:TCOON:146:1,2016-08-02T09:30:00Z,28.1324,-97.0345,29.3,1111122 
TCOON,ioos:station:TCOON:146:1,2016-08-02T10:30:00Z,28.1324,-97.0345,28.5,1111122 
TCOON,ioos:station:TCOON:146:1,2016-08-02T11:30:00Z,28.1324,-97.0345,28.4,1111122 
TCOON,ioos:station:TCOON:146:1,2016-08-02T12:30:00Z,28.1324,-97.0345,28.6,1111122 
TCOON,ioos:station:TCOON:146:1,2016-08-02T13:30:00Z,28.1324,-97.0345,29.3,1111122 
TCOON,ioos:station:TCOON:146:1,2016-08-02T14:30:00Z,28.1324,-97.0345,29.3,1111122 
TCOON,ioos:station:TCOON:146:1,2016-08-02T15:30:00Z,28.1324,-97.0345,29.7,1111122 
TCOON,ioos:station:TCOON:146:1,2016-08-02T16:30:00Z,28.1324,-97.0345,30.0,1111122 
TCOON,ioos:station:TCOON:146:1,2016-08-02T17:30:00Z,28.1324,-97.0345,30.2,1111122 
TCOON,ioos:station:TCOON:146:1,2016-08-02T18:30:00Z,28.1324,-97.0345,30.4,1111122 
TCOON,ioos:station:TCOON:146:1,2016-08-02T19:30:00Z,28.1324,-97.0345,30.5,1111122 
TCOON,ioos:station:TCOON:146:1,2016-08-02T20:30:00Z,28.1324,-97.0345,30.5,1111122 
TCOON,ioos:station:TCOON:146:1,2016-08-02T21:30:00Z,28.1324,-97.0345,30.4,1111122 
TCOON,ioos:station:TCOON:146:1,2016-08-02T22:30:00Z,28.1324,-97.0345,30.5,1111122 
TCOON,ioos:station:TCOON:146:1,2016-08-02T23:30:00Z,28.1324,-97.0345,30.5,1111122 
TCOON,ioos:station:TCOON:146:1,2016-08-03T00:30:00Z,28.1324,-97.0345,30.2,1111122 
TCOON,ioos:station:TCOON:146:1,2016-08-03T01:30:00Z,28.1324,-97.0345,30.0,1111122 
TCOON,ioos:station:TCOON:146:1,2016-08-03T02:30:00Z,28.1324,-97.0345,29.8,1111122 
TCOON,ioos:station:TCOON:146:1,2016-08-03T03:30:00Z,28.1324,-97.0345,29.8,1111122 
TCOON,ioos:station:TCOON:146:1,2016-08-03T04:30:00Z,28.1324,-97.0345,29.7,1111122 
TCOON,ioos:station:TCOON:146:1,2016-08-03T05:30:00Z,28.1324,-97.0345,29.6,1111122 
TCOON,ioos:station:TCOON:146:1,2016-08-03T06:30:00Z,28.1324,-97.0345,29.6,1111122 
TCOON,ioos:station:TCOON:146:1,2016-08-03T07:30:00Z,28.1324,-97.0345,29.4,1111122 
TCOON,ioos:station:TCOON:146:1,2016-08-03T08:30:00Z,28.1324,-97.0345,29.3,1111122 
TCOON,ioos:station:TCOON:146:1,2016-08-03T09:30:00Z,28.1324,-97.0345,29.0,1111122 
TCOON,ioos:station:TCOON:146:1,2016-08-03T10:30:00Z,28.1324,-97.0345,28.8,1111122 
TCOON,ioos:station:TCOON:146:1,2016-08-03T11:30:00Z,28.1324,-97.0345,28.7,1111122 
TCOON,ioos:station:TCOON:146:1,2016-08-03T12:30:00Z,28.1324,-97.0345,28.8,1111122 
TCOON,ioos:station:TCOON:146:1,2016-08-03T13:30:00Z,28.1324,-97.0345,29.3,1111122 
TCOON,ioos:station:TCOON:146:1,2016-08-03T14:30:00Z,28.1324,-97.0345,29.6,1111122 
TCOON,ioos:station:TCOON:146:1,2016-08-03T15:30:00Z,28.1324,-97.0345,29.7,1111122 
TCOON,ioos:station:TCOON:146:1,2016-08-03T16:30:00Z,28.1324,-97.0345,29.9,1111122 
TCOON,ioos:station:TCOON:146:1,2016-08-03T17:30:00Z,28.1324,-97.0345,30.1,1111122 
TCOON,ioos:station:TCOON:146:1,2016-08-03T18:30:00Z,28.1324,-97.0345,30.4,1111122 
TCOON,ioos:station:TCOON:146:1,2016-08-03T19:30:00Z,28.1324,-97.0345,30.5,1111122 
TCOON,ioos:station:TCOON:146:1,2016-08-05T20:30:00Z,28.1324,-97.0345,30.8,1111122 
TCOON,ioos:station:TCOON:146:1,2016-08-05T21:30:00Z,28.1324,-97.0345,30.8,1111122 
TCOON,ioos:station:TCOON:146:1,2016-08-05T22:30:00Z,28.1324,-97.0345,30.7,1111122 
TCOON,ioos:station:TCOON:146:1,2016-08-05T23:30:00Z,28.1324,-97.0345,30.8,1111122 
TCOON,ioos:station:TCOON:146:1,2016-08-06T00:30:00Z,28.1324,-97.0345,30.7,1111122 
TCOON,ioos:station:TCOON:146:1,2016-08-06T01:30:00Z,28.1324,-97.0345,30.3,1111122 
TCOON,ioos:station:TCOON:146:1,2016-08-06T02:30:00Z,28.1324,-97.0345,30.2,1111122 
TCOON,ioos:station:TCOON:146:1,2016-08-06T03:30:00Z,28.1324,-97.0345,30.2,1111122 
TCOON,ioos:station:TCOON:146:1,2016-08-06T04:30:00Z,28.1324,-97.0345,30.2,1111122 
TCOON,ioos:station:TCOON:146:1,2016-08-06T05:30:00Z,28.1324,-97.0345,30.2,1111122 
TCOON,ioos:station:TCOON:146:1,2016-08-06T06:30:00Z,28.1324,-97.0345,30.1,1111122 
TCOON,ioos:station:TCOON:146:1,2016-08-07T00:30:00Z,28.1324,-97.0345,30.6,1111122 
TCOON,ioos:station:TCOON:146:1,2016-08-07T01:30:00Z,28.1324,-97.0345,30.4,1111122 
TCOON,ioos:station:TCOON:146:1,2016-08-07T02:30:00Z,28.1324,-97.0345,30.3,1111122 
TCOON,ioos:station:TCOON:146:1,2016-08-07T03:30:00Z,28.1324,-97.0345,30.2,1111122 
TCOON,ioos:station:TCOON:146:1,2016-08-07T08:30:00Z,28.1324,-97.0345,30.0,1111122 
TCOON,ioos:station:TCOON:146:1,2016-08-07T09:30:00Z,28.1324,-97.0345,29.9,1111122 
TCOON,ioos:station:TCOON:146:1,2016-08-07T10:30:00Z,28.1324,-97.0345,29.5,1111122 
TCOON,ioos:station:TCOON:146:1,2016-08-07T14:30:00Z,28.1324,-97.0345,30.0,1111122 
TCOON,ioos:station:TCOON:146:1,2016-08-07T15:30:00Z,28.1324,-97.0345,30.6,1111122 
TCOON,ioos:station:TCOON:146:1,2016-08-07T16:30:00Z,28.1324,-97.0345,30.8,1111122 
TCOON,ioos:station:TCOON:146:1,2016-08-07T17:30:00Z,28.1324,-97.0345,30.7,1111122 
TCOON,ioos:station:TCOON:146:1,2016-08-07T19:30:00Z,28.1324,-97.0345,30.9,1111122 
TCOON,ioos:station:TCOON:146:1,2016-08-07T21:30:00Z,28.1324,-97.0345,31.0,1111122 
TCOON,ioos:station:TCOON:146:1,2016-08-07T22:30:00Z,28.1324,-97.0345,31.1,1111122 
TCOON,ioos:station:TCOON:146:1,2016-08-07T23:30:00Z,28.1324,-97.0345,30.9,1111122 
TCOON,ioos:station:TCOON:146:1,2016-08-08T01:30:00Z,28.1324,-97.0345,30.4,1111122 
TCOON,ioos:station:TCOON:146:1,2016-08-08T06:30:00Z,28.1324,-97.0345,30.0,1111122 
TCOON,ioos:station:TCOON:146:1,2016-08-08T07:30:00Z,28.1324,-97.0345,29.9,1111122 
TCOON,ioos:station:TCOON:146:1,2016-08-08T12:30:00Z,28.1324,-97.0345,29.8,1111122 
TCOON,ioos:station:TCOON:146:1,2016-08-08T14:30:00Z,28.1324,-97.0345,30.2,1111122 
TCOON,ioos:station:TCOON:146:1,2016-08-08T16:30:00Z,28.1324,-97.0345,30.4,1111122 
TCOON,ioos:station:TCOON:146:1,2016-08-08T17:30:00Z,28.1324,-97.0345,30.6,1111122 
TCOON,ioos:station:TCOON:146:1,2016-08-08T18:30:00Z,28.1324,-97.0345,30.7,1111122 
TCOON,ioos:station:TCOON:146:1,2016-08-08T19:30:00Z,28.1324,-97.0345,30.9,1111122 
TCOON,ioos:station:TCOON:146:1,2016-08-09T01:30:00Z,28.1324,-97.0345,30.4,1111122 
TCOON,ioos:station:TCOON:146:1,2016-08-09T02:30:00Z,28.1324,-97.0345,30.4,1111122 
TCOON,ioos:station:TCOON:146:1,2016-08-09T03:30:00Z,28.1324,-97.0345,30.3,1111122 
TCOON,ioos:station:TCOON:146:1,2016-08-09T04:30:00Z,28.1324,-97.0345,30.3,1111122 
TCOON,ioos:station:TCOON:146:1,2016-08-09T05:30:00Z,28.1324,-97.0345,30.3,1111122 
TCOON,ioos:station:TCOON:146:1,2016-08-09T06:30:00Z,28.1324,-97.0345,30.3,1111122 
TCOON,ioos:station:TCOON:146:1,2016-08-09T09:30:00Z,28.1324,-97.0345,30.0,1111122 
TCOON,ioos:station:TCOON:146:1,2016-08-09T10:30:00Z,28.1324,-97.0345,29.5,1111122 
TCOON,ioos:station:TCOON:146:1,2016-08-09T11:30:00Z,28.1324,-97.0345,29.1,1111122 
TCOON,ioos:station:TCOON:146:1,2016-08-12T01:30:00Z,28.1324,-97.0345,30.4,1111122 
TCOON,ioos:station:TCOON:146:1,2016-08-12T02:30:00Z,28.1324,-97.0345,30.3,1111122 
TCOON,ioos:station:TCOON:146:1,2016-08-12T03:30:00Z,28.1324,-97.0345,30.2,1111122 
TCOON,ioos:station:TCOON:146:1,2016-08-12T04:30:00Z,28.1324,-97.0345,30.1,1111122 
TCOON,ioos:station:TCOON:146:1,2016-08-12T05:30:00Z,28.1324,-97.0345,29.9,1111122 
TCOON,ioos:station:TCOON:146:1,2016-08-12T06:30:00Z,28.1324,-97.0345,29.8,1111122 
TCOON,ioos:station:TCOON:146:1,2016-08-12T07:30:00Z,28.1324,-97.0345,29.5,1111122 
TCOON,ioos:station:TCOON:146:1,2016-08-12T08:30:00Z,28.1324,-97.0345,29.3,1111122 
TCOON,ioos:station:TCOON:146:1,2016-08-12T09:30:00Z,28.1324,-97.0345,29.1,1111122 
TCOON,ioos:station:TCOON:146:1,2016-08-12T10:30:00Z,28.1324,-97.0345,29.1,1111122 
TCOON,ioos:station:TCOON:146:1,2016-08-12T11:30:00Z,28.1324,-97.0345,28.8,1111122 
TCOON,ioos:station:TCOON:146:1,2016-08-12T12:30:00Z,28.1324,-97.0345,28.8,1111122 
TCOON,ioos:station:TCOON:146:1,2016-08-12T13:30:00Z,28.1324,-97.0345,29.1,1111122 
TCOON,ioos:station:TCOON:146:1,2016-08-12T14:30:00Z,28.1324,-97.0345,29.4,1111122 
TCOON,ioos:station:TCOON:146:1,2016-08-12T15:30:00Z,28.1324,-97.0345,29.9,1111122 
TCOON,ioos:station:TCOON:146:1,2016-08-12T16:30:00Z,28.1324,-97.0345,30.3,1111122 
TCOON,ioos:station:TCOON:146:1,2016-08-12T17:30:00Z,28.1324,-97.0345,30.0,1111122 
TCOON,ioos:station:TCOON:146:1,2016-08-12T18:30:00Z,28.1324,-97.0345,30.1,1111122 
TCOON,ioos:station:TCOON:146:1,2016-08-12T19:30:00Z,28.1324,-97.0345,30.0,1111122 
TCOON,ioos:station:TCOON:146:1,2016-08-12T20:30:00Z,28.1324,-97.0345,30.2,1111122 
TCOON,ioos:station:TCOON:146:1,2016-08-12T21:30:00Z,28.1324,-97.0345,30.3,1111122 
TCOON,ioos:station:TCOON:146:1,2016-08-12T22:30:00Z,28.1324,-97.0345,30.2,1111122 
TCOON,ioos:station:TCOON:146:1,2016-08-12T23:30:00Z,28.1324,-97.0345,30.3,1111122 
TCOON,ioos:station:TCOON:146:1,2016-08-13T00:30:00Z,28.1324,-97.0345,30.1,1111122 
TCOON,ioos:station:TCOON:146:1,2016-08-13T01:30:00Z,28.1324,-97.0345,29.9,1111122 
TCOON,ioos:station:TCOON:146:1,2016-08-13T02:30:00Z,28.1324,-97.0345,29.7,1111122 
TCOON,ioos:station:TCOON:146:1,2016-08-13T03:30:00Z,28.1324,-97.0345,29.7,1111122 
TCOON,ioos:station:TCOON:146:1,2016-08-13T04:30:00Z,28.1324,-97.0345,29.5,1111122 
TCOON,ioos:station:TCOON:146:1,2016-08-13T05:30:00Z,28.1324,-97.0345,29.4,1111122 
TCOON,ioos:station:TCOON:146:1,2016-08-13T06:30:00Z,28.1324,-97.0345,29.2,1111122 
TCOON,ioos:station:TCOON:146:1,2016-08-13T07:30:00Z,28.1324,-97.0345,29.1,1111122 
TCOON,ioos:station:TCOON:146:1,2016-08-13T08:30:00Z,28.1324,-97.0345,28.9,1111122 
TCOON,ioos:station:TCOON:146:1,2016-08-13T09:30:00Z,28.1324,-97.0345,28.7,1111122 
TCOON,ioos:station:TCOON:146:1,2016-08-13T10:30:00Z,28.1324,-97.0345,29.0,1111122 
TCOON,ioos:station:TCOON:146:1,2016-08-13T11:30:00Z,28.1324,-97.0345,28.6,1111122 
TCOON,ioos:station:TCOON:146:1,2016-08-13T12:30:00Z,28.1324,-97.0345,28.7,1111122 
TCOON,ioos:station:TCOON:146:1,2016-08-13T13:30:00Z,28.1324,-97.0345,28.9,1111122 
TCOON,ioos:station:TCOON:146:1,2016-08-13T14:30:00Z,28.1324,-97.0345,29.3,1111122 
TCOON,ioos:station:TCOON:146:1,2016-08-13T15:30:00Z,28.1324,-97.0345,29.8,1111122 
TCOON,ioos:station:TCOON:146:1,2016-08-13T16:30:00Z,28.1324,-97.0345,31.0,1111122 
TCOON,ioos:station:TCOON:146:1,2016-08-13T17:30:00Z,28.1324,-97.0345,30.3,1111122 
TCOON,ioos:station:TCOON:146:1,2016-08-13T18:30:00Z,28.1324,-97.0345,30.5,1111122 
TCOON,ioos:station:TCOON:146:1,2016-08-13T19:30:00Z,28.1324,-97.0345,31.0,1111122 
TCOON,ioos:station:TCOON:146:1,2016-08-13T20:30:00Z,28.1324,-97.0345,30.4,1111122 
TCOON,ioos:station:TCOON:146:1,2016-08-13T21:30:00Z,28.1324,-97.0345,30.3,1111122 
TCOON,ioos:station:TCOON:146:1,2016-08-13T22:30:00Z,28.1324,-97.0345,30.4,1111122 
TCOON,ioos:station:TCOON:146:1,2016-08-13T23:30:00Z,28.1324,-97.0345,30.2,1111122 
TCOON,ioos:station:TCOON:146:1,2016-08-14T00:30:00Z,28.1324,-97.0345,30.1,1111122 
TCOON,ioos:station:TCOON:146:1,2016-08-14T01:30:00Z,28.1324,-97.0345,30.1,1111122 
TCOON,ioos:station:TCOON:146:1,2016-08-14T02:30:00Z,28.1324,-97.0345,29.8,1111122 
TCOON,ioos:station:TCOON:146:1,2016-08-14T03:30:00Z,28.1324,-97.0345,29.9,1111122 
TCOON,ioos:station:TCOON:146:1,2016-08-14T04:30:00Z,28.1324,-97.0345,29.9,1111122 
TCOON,ioos:station:TCOON:146:1,2016-08-14T05:30:00Z,28.1324,-97.0345,29.7,1111122 
TCOON,ioos:station:TCOON:146:1,2016-08-14T06:30:00Z,28.1324,-97.0345,29.5,1111122 
TCOON,ioos:station:TCOON:146:1,2016-08-14T07:30:00Z,28.1324,-97.0345,29.3,1111122 
TCOON,ioos:station:TCOON:146:1,2016-08-14T08:30:00Z,28.1324,-97.0345,29.2,1111122 
TCOON,ioos:station:TCOON:146:1,2016-08-14T09:30:00Z,28.1324,-97.0345,28.5,1111122 
TCOON,ioos:station:TCOON:146:1,2016-08-14T10:30:00Z,28.1324,-97.0345,26.8,1111122 
TCOON,ioos:station:TCOON:146:1,2016-08-14T11:30:00Z,28.1324,-97.0345,26.9,1111122 
TCOON,ioos:station:TCOON:146:1,2016-08-14T12:30:00Z,28.1324,-97.0345,26.1,1111122 
TCOON,ioos:station:TCOON:146:1,2016-08-14T13:30:00Z,28.1324,-97.0345,25.6,1111122 
TCOON,ioos:station:TCOON:146:1,2016-08-14T14:30:00Z,28.1324,-97.0345,26.5,1111122 
TCOON,ioos:station:TCOON:146:1,2016-08-14T15:30:00Z,28.1324,-97.0345,26.2,1111122 
TCOON,ioos:station:TCOON:146:1,2016-08-14T16:30:00Z,28.1324,-97.0345,27.4,1111122 
TCOON,ioos:station:TCOON:146:1,2016-08-14T17:30:00Z,28.1324,-97.0345,28.4,1111122 
TCOON,ioos:station:TCOON:146:1,2016-08-14T18:30:00Z,28.1324,-97.0345,29.2,1111122 
TCOON,ioos:station:TCOON:146:1,2016-08-14T19:30:00Z,28.1324,-97.0345,29.4,1111122 
TCOON,ioos:station:TCOON:146:1,2016-08-14T20:30:00Z,28.1324,-97.0345,29.7,1111122 
TCOON,ioos:station:TCOON:146:1,2016-08-14T21:30:00Z,28.1324,-97.0345,29.5,1111122 
TCOON,ioos:station:TCOON:146:1,2016-08-14T22:30:00Z,28.1324,-97.0345,29.6,1111122 
TCOON,ioos:station:TCOON:146:1,2016-08-14T23:30:00Z,28.1324,-97.0345,29.8,1111122 
TCOON,ioos:station:TCOON:146:1,2016-08-15T00:30:00Z,28.1324,-97.0345,29.6,1111122 
TCOON,ioos:station:TCOON:146:1,2016-08-15T01:30:00Z,28.1324,-97.0345,26.8,1111122 
TCOON,ioos:station:TCOON:146:1,2016-08-15T02:30:00Z,28.1324,-97.0345,26.3,1111122 
TCOON,ioos:station:TCOON:146:1,2016-08-15T03:30:00Z,28.1324,-97.0345,26.6,1111122 
TCOON,ioos:station:TCOON:146:1,2016-08-15T04:30:00Z,28.1324,-97.0345,26.7,1111122 
TCOON,ioos:station:TCOON:146:1,2016-08-15T05:30:00Z,28.1324,-97.0345,26.5,1111122 
TCOON,ioos:station:TCOON:146:1,2016-08-15T06:30:00Z,28.1324,-97.0345,26.7,1111122 
TCOON,ioos:station:TCOON:146:1,2016-08-15T07:30:00Z,28.1324,-97.0345,25.4,1111122 
TCOON,ioos:station:TCOON:146:1,2016-08-15T08:30:00Z,28.1324,-97.0345,27.3,1111122 
TCOON,ioos:station:TCOON:146:1,2016-08-15T09:30:00Z,28.1324,-97.0345,28.2,1111122 
TCOON,ioos:station:TCOON:146:1,2016-08-15T10:30:00Z,28.1324,-97.0345,28.0,1111122 
TCOON,ioos:station:TCOON:146:1,2016-08-15T11:30:00Z,28.1324,-97.0345,26.1,1111122 
TCOON,ioos:station:TCOON:146:1,2016-08-15T12:30:00Z,28.1324,-97.0345,26.4,1111122 
TCOON,ioos:station:TCOON:146:1,2016-08-15T13:30:00Z,28.1324,-97.0345,25.2,1111122 
TCOON,ioos:station:TCOON:146:1,2016-08-15T14:30:00Z,28.1324,-97.0345,25.3,1111122 
TCOON,ioos:station:TCOON:146:1,2016-08-15T15:30:00Z,28.1324,-97.0345,26.0,1111122 
TCOON,ioos:station:TCOON:146:1,2016-08-15T16:30:00Z,28.1324,-97.0345,26.2,1111122 
TCOON,ioos:station:TCOON:146:1,2016-08-15T17:30:00Z,28.1324,-97.0345,27.7,1111122 
TCOON,ioos:station:TCOON:146:1,2016-08-15T18:30:00Z,28.1324,-97.0345,28.2,1111122 
TCOON,ioos:station:TCOON:146:1,2016-08-15T19:30:00Z,28.1324,-97.0345,29.1,1111122 
TCOON,ioos:station:TCOON:146:1,2016-08-15T20:30:00Z,28.1324,-97.0345,30.0,1111122 
TCOON,ioos:station:TCOON:146:1,2016-08-15T21:30:00Z,28.1324,-97.0345,30.2,1111122 
TCOON,ioos:station:TCOON:146:1,2016-08-15T22:30:00Z,28.1324,-97.0345,29.9,1111122 
TCOON,ioos:station:TCOON:146:1,2016-08-15T23:30:00Z,28.1324,-97.0345,29.9,1111122 
TCOON,ioos:station:TCOON:146:1,2016-08-16T00:30:00Z,28.1324,-97.0345,29.3,1111122 
TCOON,ioos:station:TCOON:146:1,2016-08-16T01:30:00Z,28.1324,-97.0345,29.4,1111122 
TCOON,ioos:station:TCOON:146:1,2016-08-16T02:30:00Z,28.1324,-97.0345,29.1,1111122 
TCOON,ioos:station:TCOON:146:1,2016-08-16T03:30:00Z,28.1324,-97.0345,29.1,1111122 
TCOON,ioos:station:TCOON:146:1,2016-08-16T04:30:00Z,28.1324,-97.0345,29.2,1111122 
TCOON,ioos:station:TCOON:146:1,2016-08-16T05:30:00Z,28.1324,-97.0345,29.2,1111122 
TCOON,ioos:station:TCOON:146:1,2016-08-16T06:30:00Z,28.1324,-97.0345,29.2,1111122 
TCOON,ioos:station:TCOON:146:1,2016-08-16T07:30:00Z,28.1324,-97.0345,28.8,1111122 
TCOON,ioos:station:TCOON:146:1,2016-08-16T08:30:00Z,28.1324,-97.0345,28.3,1111122 
TCOON,ioos:station:TCOON:146:1,2016-08-16T09:30:00Z,28.1324,-97.0345,28.6,1111122 
TCOON,ioos:station:TCOON:146:1,2016-08-16T10:30:00Z,28.1324,-97.0345,27.8,1111122 
TCOON,ioos:station:TCOON:146:1,2016-08-16T11:30:00Z,28.1324,-97.0345,27.8,1111122 
TCOON,ioos:station:TCOON:146:1,2016-08-16T12:30:00Z,28.1324,-97.0345,27.5,1111122 
TCOON,ioos:station:TCOON:146:1,2016-08-16T13:30:00Z,28.1324,-97.0345,27.6,1111122 
TCOON,ioos:station:TCOON:146:1,2016-08-16T14:30:00Z,28.1324,-97.0345,27.4,1111122 
TCOON,ioos:station:TCOON:146:1,2016-08-16T15:30:00Z,28.1324,-97.0345,27.6,1111122 
TCOON,ioos:station:TCOON:146:1,2016-08-16T16:30:00Z,28.1324,-97.0345,28.0,1111122 
TCOON,ioos:station:TCOON:146:1,2016-08-16T17:30:00Z,28.1324,-97.0345,27.6,1111122 
TCOON,ioos:station:TCOON:146:1,2016-08-16T18:30:00Z,28.1324,-97.0345,26.7,1111122 
TCOON,ioos:station:TCOON:146:1,2016-08-16T19:30:00Z,28.1324,-97.0345,26.9,1111122 
TCOON,ioos:station:TCOON:146:1,2016-08-16T22:30:00Z,28.1324,-97.0345,27.8,1111122 
TCOON,ioos:station:TCOON:146:1,2016-08-16T23:30:00Z,28.1324,-97.0345,27.8,1111122 
TCOON,ioos:station:TCOON:146:1,2016-08-17T00:30:00Z,28.1324,-97.0345,27.7,1111122 
TCOON,ioos:station:TCOON:146:1,2016-08-17T01:30:00Z,28.1324,-97.0345,27.8,1111122 
TCOON,ioos:station:TCOON:146:1,2016-08-17T02:30:00Z,28.1324,-97.0345,27.9,1111122 
TCOON,ioos:station:TCOON:146:1,2016-08-17T03:30:00Z,28.1324,-97.0345,28.0,1111122 
TCOON,ioos:station:TCOON:146:1,2016-08-17T04:30:00Z,28.1324,-97.0345,28.3,1111122 
TCOON,ioos:station:TCOON:146:1,2016-08-17T05:30:00Z,28.1324,-97.0345,28.4,1111122 
TCOON,ioos:station:TCOON:146:1,2016-08-17T06:30:00Z,28.1324,-97.0345,28.6,1111122 
TCOON,ioos:station:TCOON:146:1,2016-08-17T07:30:00Z,28.1324,-97.0345,28.6,1111122 
TCOON,ioos:station:TCOON:146:1,2016-08-17T08:30:00Z,28.1324,-97.0345,28.8,1111122 
TCOON,ioos:station:TCOON:146:1,2016-08-17T09:30:00Z,28.1324,-97.0345,28.8,1111122 
TCOON,ioos:station:TCOON:146:1,2016-08-17T10:30:00Z,28.1324,-97.0345,28.7,1111122 
TCOON,ioos:station:TCOON:146:1,2016-08-17T11:30:00Z,28.1324,-97.0345,28.7,1111122 
TCOON,ioos:station:TCOON:146:1,2016-08-17T12:30:00Z,28.1324,-97.0345,28.6,1111122 
TCOON,ioos:station:TCOON:146:1,2016-08-17T13:30:00Z,28.1324,-97.0345,28.8,1111122 
TCOON,ioos:station:TCOON:146:1,2016-08-17T14:30:00Z,28.1324,-97.0345,28.5,1111122 
TCOON,ioos:station:TCOON:146:1,2016-08-17T15:30:00Z,28.1324,-97.0345,29.1,1111122 
TCOON,ioos:station:TCOON:146:1,2016-08-17T16:30:00Z,28.1324,-97.0345,29.6,1111122 
TCOON,ioos:station:TCOON:146:1,2016-08-17T17:30:00Z,28.1324,-97.0345,29.8,1111122 
TCOON,ioos:station:TCOON:146:1,2016-08-17T18:30:00Z,28.1324,-97.0345,29.6,1111122 
TCOON,ioos:station:TCOON:146:1,2016-08-17T19:30:00Z,28.1324,-97.0345,26.2,1111122 
TCOON,ioos:station:TCOON:146:1,2016-08-17T20:30:00Z,28.1324,-97.0345,27.2,1111122 
TCOON,ioos:station:TCOON:146:1,2016-08-17T21:30:00Z,28.1324,-97.0345,27.5,1111122 
TCOON,ioos:station:TCOON:146:1,2016-08-17T22:30:00Z,28.1324,-97.0345,27.8,1111122 
TCOON,ioos:station:TCOON:146:1,2016-08-17T23:30:00Z,28.1324,-97.0345,27.5,1111122 
TCOON,ioos:station:TCOON:146:1,2016-08-18T00:30:00Z,28.1324,-97.0345,27.4,1111122 
TCOON,ioos:station:TCOON:146:1,2016-08-18T01:30:00Z,28.1324,-97.0345,27.3,1111122 
TCOON,ioos:station:TCOON:146:1,2016-08-18T02:30:00Z,28.1324,-97.0345,27.2,1111122 
TCOON,ioos:station:TCOON:146:1,2016-08-18T03:30:00Z,28.1324,-97.0345,27.5,1111122 
TCOON,ioos:station:TCOON:146:1,2016-08-18T04:30:00Z,28.1324,-97.0345,28.0,1111122 
TCOON,ioos:station:TCOON:146:1,2016-08-18T05:30:00Z,28.1324,-97.0345,28.2,1111122 
TCOON,ioos:station:TCOON:146:1,2016-08-18T06:30:00Z,28.1324,-97.0345,28.5,1111122 
TCOON,ioos:station:TCOON:146:1,2016-08-18T07:30:00Z,28.1324,-97.0345,28.5,1111122 
TCOON,ioos:station:TCOON:146:1,2016-08-18T08:30:00Z,28.1324,-97.0345,28.6,1111122 
TCOON,ioos:station:TCOON:146:1,2016-08-18T09:30:00Z,28.1324,-97.0345,28.6,1111122 
TCOON,ioos:station:TCOON:146:1,2016-08-18T10:30:00Z,28.1324,-97.0345,28.4,1111122 
TCOON,ioos:station:TCOON:146:1,2016-08-18T11:30:00Z,28.1324,-97.0345,28.5,1111122 
TCOON,ioos:station:TCOON:146:1,2016-08-18T12:30:00Z,28.1324,-97.0345,28.7,1111122 
TCOON,ioos:station:TCOON:146:1,2016-08-18T13:30:00Z,28.1324,-97.0345,28.9,1111122 
TCOON,ioos:station:TCOON:146:1,2016-08-18T14:30:00Z,28.1324,-97.0345,29.1,1111122 
TCOON,ioos:station:TCOON:146:1,2016-08-18T15:30:00Z,28.1324,-97.0345,29.3,1111122 
TCOON,ioos:station:TCOON:146:1,2016-08-18T16:30:00Z,28.1324,-97.0345,29.7,1111122 
TCOON,ioos:station:TCOON:146:1,2016-08-18T17:30:00Z,28.1324,-97.0345,29.8,1111122 
TCOON,ioos:station:TCOON:146:1,2016-08-18T18:30:00Z,28.1324,-97.0345,29.8,1111122 
TCOON,ioos:station:TCOON:146:1,2016-08-18T19:30:00Z,28.1324,-97.0345,30.0,1111122 
TCOON,ioos:station:TCOON:146:1,2016-08-18T20:30:00Z,28.1324,-97.0345,30.2,1111122 
TCOON,ioos:station:TCOON:146:1,2016-08-18T21:30:00Z,28.1324,-97.0345,30.1,1111122 
TCOON,ioos:station:TCOON:146:1,2016-08-18T22:30:00Z,28.1324,-97.0345,30.0,1111122 
TCOON,ioos:station:TCOON:146:1,2016-08-18T23:30:00Z,28.1324,-97.0345,29.9,1111122 
TCOON,ioos:station:TCOON:146:1,2016-08-19T00:30:00Z,28.1324,-97.0345,29.8,1111122 
TCOON,ioos:station:TCOON:146:1,2016-08-19T01:30:00Z,28.1324,-97.0345,29.5,1111122 
TCOON,ioos:station:TCOON:146:1,2016-08-19T03:30:00Z,28.1324,-97.0345,29.6,1111122 
TCOON,ioos:station:TCOON:146:1,2016-08-19T04:30:00Z,28.1324,-97.0345,29.5,1111122 
TCOON,ioos:station:TCOON:146:1,2016-08-19T05:30:00Z,28.1324,-97.0345,29.6,1111122 
TCOON,ioos:station:TCOON:146:1,2016-08-19T06:30:00Z,28.1324,-97.0345,29.4,1111122 
TCOON,ioos:station:TCOON:146:1,2016-08-19T07:30:00Z,28.1324,-97.0345,29.3,1111122 
TCOON,ioos:station:TCOON:146:1,2016-08-19T08:30:00Z,28.1324,-97.0345,29.3,1111122 
TCOON,ioos:station:TCOON:146:1,2016-08-19T10:30:00Z,28.1324,-97.0345,28.9,1111122 
TCOON,ioos:station:TCOON:146:1,2016-08-19T11:30:00Z,28.1324,-97.0345,28.8,1111122 
TCOON,ioos:station:TCOON:146:1,2016-08-19T12:30:00Z,28.1324,-97.0345,28.7,1111122 